Date,TemperatureHighF,TemperatureAvgF,TemperatureLowF,DewpointHighF,DewpointAvgF,DewpointLowF,HumidityHigh,HumidityAvg,HumidityLow,PressureMaxIn,PressureMinIn,WindSpeedMaxMPH,WindSpeedAvgMPH,GustSpeedMaxMPH,PrecipitationSumIn
2013-1-11,32,30,30,30,28,25,96,91,75,30.31,30.22,3,1,5,0.00
2013-1-12,40,35,31,39,34,30,97,96,96,30.22,30.13,5,1,11,0.07
2013-1-13,46,42,36,45,41,35,98,97,97,30.14,29.98,13,4,16,0.08
2013-1-14,52,43,32,48,37,24,98,81,55,30.26,29.85,11,3,22,0.08
2013-1-15,34,30,26,24,22,19,83,71,59,30.32,30.22,2,0,5,0.00
2013-1-16,28,27,25,27,24,20,95,89,73,30.25,29.83,2,0,4,0.00
2013-1-17,34,27,20,28,19,6,94,74,54,30.11,29.83,14,4,14,0.00
2013-1-18,20,13,6,5,-1,-7,75,53,37,30.43,30.05,11,2,14,0.00
2013-1-19,39,30,16,26,17,5,64,58,49,30.36,29.85,12,5,21,0.01
2013-1-20,43,33,21,29,20,7,73,58,30,29.91,29.52,21,5,28,0.01
2013-1-21,21,17,11,14,5,-2,92,62,47,30.05,29.80,8,2,14,0.00
2013-1-22,17,12,3,14,4,-5,92,72,41,30.07,29.78,6,1,12,0.00
2013-1-23,7,2,-5,-6,-14,-17,64,48,33,30.16,30.06,7,2,13,0.00
2013-1-24,11,2,-7,-11,-14,-16,66,48,32,30.27,30.10,10,4,15,0.00
2013-1-25,15,8,0,6,-9,-13,83,47,30,30.34,30.10,8,2,10,0.00
2013-1-26,16,9,3,6,-3,-9,87,61,32,30.27,30.05,7,2,10,0.00
2013-1-27,24,13,6,0,-2,-7,73,52,29,30.51,30.26,7,2,11,0.00
2013-1-28,22,17,12,18,9,-2,92,72,48,30.49,30.06,2,0,4,0.00
2013-1-29,32,25,17,28,22,16,96,90,80,30.20,30.06,2,0,4,0.00
2013-1-30,55,42,29,54,41,28,98,96,94,30.15,29.41,18,4,26,0.49
2013-1-31,58,43,26,56,35,14,97,76,51,29.44,28.89,16,6,28,1.10